| time (UTC) | temp F | wind direction | speed knots | gust knots | rain 1hr in | rain 24hr in | rain mn in | humidity % | barometer mb |
| 20260831123512 | 77 | 156 | 0.0 | 2.6 | 0.00 | 0.00 | 0.00 | 85 | 1020.1 |
| 20260831123029 | 77 | 76 | 0.0 | 3.5 | 0.00 | 0.00 | 0.00 | 85 | 1020.0 |
| 20260831122506 | 77 | 121 | 0.9 | 3.5 | 0.00 | 0.00 | 0.00 | 86 | 1020.0 |
| 20260831122011 | 76 | 121 | 0.0 | 1.7 | 0.00 | 0.00 | 0.00 | 87 | 1020.0 |
| 20260831121537 | 76 | 28 | 0.0 | 2.6 | 0.00 | 0.00 | 0.00 | 87 | 1019.9 |
| 20260831121008 | 75 | 26 | 0.0 | 2.6 | 0.00 | 0.00 | 0.00 | 88 | 1019.8 |
| 20260831120518 | 75 | 111 | 0.0 | 1.7 | 0.00 | 0.00 | 0.00 | 89 | 1019.7 |
| 20260831120030 | 74 | 5 | 0.0 | 0.0 | 0.00 | 0.00 | 0.00 | 89 | 1019.8 |
| 20260831115508 | 74 | 34 | 0.0 | 0.0 | 0.00 | 0.00 | 0.00 | 90 | 1019.8 |
| 20260831115014 | 74 | 34 | 0.0 | 0.0 | 0.00 | 0.00 | 0.00 | 90 | 1019.8 |
| 20260831114533 | 73 | 5 | 0.0 | 0.0 | 0.00 | 0.00 | 0.00 | 90 | 1019.8 |
| 20260831114008 | 73 | 5 | 0.0 | 0.0 | 0.00 | 0.00 | 0.00 | 91 | 1019.8 |
| 20260831113515 | 73 | 5 | 0.0 | 0.0 | 0.00 | 0.00 | 0.00 | 90 | 1019.8 |
| 20260831113033 | 73 | 5 | 0.0 | 0.0 | 0.00 | 0.00 | 0.00 | 90 | 1019.7 |
| 20260831112513 | 73 | 5 | 0.0 | 0.9 | 0.00 | 0.00 | 0.00 | 90 | 1019.6 |
| 20260831112014 | 73 | 5 | 0.0 | 0.9 | 0.00 | 0.00 | 0.00 | 90 | 1019.6 |
| 20260831111549 | 73 | 57 | 0.0 | 0.0 | 0.00 | 0.00 | 0.00 | 90 | 1019.5 |
| 20260831111010 | 73 | 57 | 0.0 | 0.9 | 0.00 | 0.00 | 0.00 | 90 | 1019.5 |
| 20260831110512 | 73 | 57 | 0.0 | 0.9 | 0.00 | 0.00 | 0.00 | 90 | 1019.4 |
| 20260831110006 | 73 | 57 | 0.0 | 0.9 | 0.00 | 0.00 | 0.00 | 90 | 1019.4 |
| 20260831105511 | 73 | 26 | 0.0 | 0.0 | 0.00 | 0.00 | 0.00 | 90 | 1019.4 |
| 20260831105019 | 73 | 26 | 0.0 | 0.0 | 0.00 | 0.00 | 0.00 | 89 | 1019.4 |
| 20260831104511 | 73 | 26 | 0.0 | 0.0 | 0.00 | 0.00 | 0.00 | 89 | 1019.5 |
| 20260831104010 | 73 | 26 | 0.0 | 0.0 | 0.00 | 0.00 | 0.00 | 89 | 1019.5 |
| 20260831103515 | 73 | 26 | 0.0 | 0.0 | 0.00 | 0.00 | 0.00 | 89 | 1019.5 |
| 20260831103007 | 73 | 26 | 0.0 | 0.0 | 0.00 | 0.00 | 0.00 | 89 | 1019.4 |
| 20260831102511 | 73 | 26 | 0.0 | 0.0 | 0.00 | 0.00 | 0.00 | 89 | 1019.4 |
| 20260831102016 | 73 | 26 | 0.0 | 0.0 | 0.00 | 0.00 | 0.00 | 89 | 1019.4 |
| 20260831101512 | 73 | 26 | 0.0 | 0.0 | 0.00 | 0.00 | 0.00 | 89 | 1019.3 |
| 20260831101015 | 73 | 26 | 0.0 | 0.0 | 0.00 | 0.00 | 0.00 | 89 | 1019.2 |
| 20260831100516 | 73 | 26 | 0.0 | 0.0 | 0.00 | 0.00 | 0.00 | 89 | 1019.2 |
| 20260831100013 | 73 | 26 | 0.0 | 0.0 | 0.00 | 0.00 | 0.00 | 89 | 1019.1 |
| 20260831095512 | 73 | 26 | 0.0 | 0.0 | 0.00 | 0.00 | 0.00 | 89 | 1019.2 |
| 20260831095016 | 73 | 26 | 0.0 | 0.0 | 0.00 | 0.00 | 0.00 | 88 | 1019.2 |
| 20260831094517 | 74 | 26 | 0.0 | 0.0 | 0.00 | 0.00 | 0.00 | 88 | 1019.2 |
| 20260831094003 | 74 | 26 | 0.0 | 0.0 | 0.00 | 0.00 | 0.00 | 88 | 1019.2 |
| 20260831093506 | 74 | 26 | 0.0 | 0.0 | 0.00 | 0.00 | 0.00 | 88 | 1019.1 |
| 20260831093015 | 74 | 26 | 0.0 | 0.0 | 0.00 | 0.00 | 0.00 | 88 | 1019.1 |
| 20260831092503 | 74 | 26 | 0.0 | 0.0 | 0.00 | 0.00 | 0.00 | 87 | 1019.1 |
| 20260831092003 | 74 | 26 | 0.0 | 0.9 | 0.00 | 0.00 | 0.00 | 87 | 1019.1 |
| 20260831091512 | 75 | 26 | 0.0 | 0.9 | 0.00 | 0.00 | 0.00 | 87 | 1019.2 |
| 20260831091004 | 75 | 26 | 0.0 | 0.9 | 0.00 | 0.00 | 0.00 | 86 | 1019.1 |
| 20260831090503 | 75 | 26 | 0.0 | 1.7 | 0.00 | 0.00 | 0.00 | 86 | 1019.2 |
| 20260831090017 | 75 | 26 | 0.0 | 1.7 | 0.00 | 0.00 | 0.00 | 86 | 1019.1 |
| 20260831085502 | 75 | 26 | 0.0 | 1.7 | 0.00 | 0.00 | 0.00 | 86 | 1019.1 |
| 20260831085006 | 75 | 67 | 0.0 | 1.7 | 0.00 | 0.00 | 0.00 | 86 | 1019.0 |
| 20260831084533 | 75 | 5 | 0.0 | 0.9 | 0.00 | 0.00 | 0.00 | 86 | 1019.1 |
| 20260831084003 | 75 | 51 | 0.0 | 0.9 | 0.00 | 0.00 | 0.00 | 86 | 1019.1 |
| 20260831083507 | 75 | 51 | 0.0 | 2.6 | 0.00 | 0.00 | 0.00 | 86 | 1019.1 |
| 20260831083016 | 75 | 51 | 0.0 | 2.6 | 0.00 | 0.00 | 0.00 | 86 | 1019.1 |
| 20260831082503 | 75 | 11 | 0.0 | 2.6 | 0.00 | 0.00 | 0.00 | 86 | 1019.1 |
| 20260831082006 | 75 | 11 | 0.0 | 2.6 | 0.00 | 0.00 | 0.00 | 86 | 1019.1 |
| 20260831081524 | 75 | 33 | 0.0 | 2.6 | 0.00 | 0.00 | 0.00 | 87 | 1019.1 |
| 20260831081016 | 75 | 56 | 0.0 | 0.9 | 0.00 | 0.00 | 0.00 | 87 | 1019.1 |
| 20260831080507 | 75 | 92 | 0.0 | 1.7 | 0.00 | 0.00 | 0.00 | 87 | 1019.1 |
| 20260831080020 | 75 | 26 | 0.0 | 1.7 | 0.00 | 0.00 | 0.00 | 87 | 1019.1 |
| 20260831075503 | 74 | 102 | 0.0 | 1.7 | 0.00 | 0.00 | 0.00 | 88 | 1019.1 |
| 20260831075008 | 74 | 58 | 0.0 | 1.7 | 0.00 | 0.00 | 0.00 | 89 | 1019.1 |
| 20260831074535 | 74 | 180 | 0.0 | 1.7 | 0.00 | 0.00 | 0.00 | 90 | 1019.1 |
| 20260831074006 | 73 | 97 | 0.0 | 0.9 | 0.00 | 0.00 | 0.00 | 90 | 1019.1 |
| 20260831073508 | 73 | 24 | 0.0 | 0.0 | 0.00 | 0.00 | 0.00 | 90 | 1019.2 |
| 20260831073055 | 73 | 24 | 0.0 | 0.9 | 0.00 | 0.00 | 0.00 | 90 | 1019.2 |
| 20260831072504 | 73 | 24 | 0.0 | 0.9 | 0.00 | 0.00 | 0.00 | 90 | 1019.2 |
| 20260831072009 | 73 | 24 | 0.0 | 0.9 | 0.00 | 0.00 | 0.00 | 89 | 1019.2 |
| 20260831071522 | 73 | 11 | 0.0 | 0.9 | 0.00 | 0.00 | 0.00 | 89 | 1019.2 |
| 20260831071003 | 74 | 11 | 0.0 | 0.9 | 0.00 | 0.00 | 0.00 | 89 | 1019.3 |
| 20260831070510 | 74 | 11 | 0.0 | 0.9 | 0.00 | 0.00 | 0.00 | 89 | 1019.3 |
| 20260831070031 | 74 | 11 | 0.0 | 0.0 | 0.00 | 0.00 | 0.00 | 89 | 1019.3 |
| 20260831065502 | 74 | 11 | 0.0 | 0.0 | 0.00 | 0.00 | 0.00 | 88 | 1019.3 |
| 20260831065008 | 74 | 11 | 0.0 | 0.9 | 0.00 | 0.00 | 0.00 | 88 | 1019.3 |
| 20260831064534 | 74 | 11 | 0.0 | 1.7 | 0.00 | 0.00 | 0.00 | 89 | 1019.3 |
| 20260831064006 | 74 | 11 | 0.0 | 1.7 | 0.00 | 0.00 | 0.00 | 89 | 1019.5 |
| 20260831063510 | 74 | 11 | 0.0 | 1.7 | 0.00 | 0.00 | 0.00 | 89 | 1019.5 |
| 20260831063028 | 73 | 22 | 0.0 | 1.7 | 0.00 | 0.00 | 0.00 | 90 | 1019.4 |
| 20260831062506 | 73 | 5 | 0.0 | 1.7 | 0.00 | 0.00 | 0.00 | 90 | 1019.3 |
| 20260831062012 | 73 | 5 | 0.0 | 0.9 | 0.00 | 0.00 | 0.00 | 91 | 1019.3 |
| 20260831061536 | 73 | 5 | 0.0 | 0.9 | 0.00 | 0.00 | 0.00 | 91 | 1019.4 |
| 20260831061008 | 73 | 5 | 0.0 | 0.9 | 0.00 | 0.00 | 0.00 | 91 | 1019.4 |
| 20260831060512 | 73 | 5 | 0.0 | 0.0 | 0.00 | 0.00 | 0.00 | 91 | 1019.5 |
| 20260831060004 | 73 | 5 | 0.0 | 0.0 | 0.00 | 0.00 | 0.00 | 91 | 1019.5 |
| 20260831055507 | 73 | 5 | 0.0 | 0.0 | 0.00 | 0.00 | 0.00 | 90 | 1019.6 |
| 20260831055011 | 73 | 5 | 0.0 | 0.9 | 0.00 | 0.00 | 0.00 | 90 | 1019.6 |
| 20260831054505 | 73 | 5 | 0.0 | 0.9 | 0.00 | 0.00 | 0.00 | 90 | 1019.6 |
| 20260831054007 | 74 | 5 | 0.0 | 0.0 | 0.00 | 0.00 | 0.00 | 90 | 1019.6 |
| 20260831053514 | 74 | 5 | 0.0 | 0.0 | 0.00 | 0.00 | 0.00 | 90 | 1019.6 |
| 20260831053012 | 74 | 5 | 0.0 | 0.0 | 0.00 | 0.00 | 0.00 | 89 | 1019.7 |
| 20260831052511 | 74 | 5 | 0.0 | 0.0 | 0.00 | 0.00 | 0.00 | 89 | 1019.7 |
| 20260831052016 | 74 | 5 | 0.0 | 0.0 | 0.00 | 0.00 | 0.00 | 89 | 1019.7 |
| 20260831051506 | 75 | 5 | 0.0 | 0.9 | 0.00 | 0.00 | 0.00 | 89 | 1019.8 |
| 20260831051013 | 75 | 5 | 0.0 | 0.9 | 0.00 | 0.00 | 0.00 | 88 | 1019.7 |
| 20260831050518 | 75 | 5 | 0.0 | 0.9 | 0.00 | 0.00 | 0.00 | 88 | 1019.8 |
| 20260831050018 | 75 | 5 | 0.0 | 0.9 | 0.00 | 0.00 | 0.00 | 87 | 1019.8 |
| 20260831045507 | 75 | 5 | 0.0 | 0.9 | 0.00 | 0.00 | 0.00 | 87 | 1019.9 |
| 20260831045016 | 75 | 5 | 0.0 | 0.0 | 0.00 | 0.00 | 0.00 | 87 | 1019.8 |
| 20260831044504 | 75 | 5 | 0.0 | 0.0 | 0.00 | 0.00 | 0.00 | 86 | 1019.8 |
| 20260831044013 | 75 | 5 | 0.0 | 0.0 | 0.00 | 0.00 | 0.00 | 86 | 1019.8 |
| 20260831043511 | 76 | 5 | 0.0 | 0.0 | 0.00 | 0.00 | 0.00 | 85 | 1019.8 |
| 20260831043005 | 76 | 5 | 0.0 | 0.0 | 0.00 | 0.00 | 0.00 | 85 | 1019.8 |
| 20260831042511 | 76 | 5 | 0.0 | 0.0 | 0.00 | 0.00 | 0.00 | 85 | 1019.9 |
| 20260831042016 | 76 | 5 | 0.0 | 0.9 | 0.00 | 0.00 | 0.00 | 85 | 1019.9 |
| 20260831041505 | 76 | 5 | 0.0 | 0.9 | 0.00 | 0.00 | 0.00 | 85 | 1019.9 |
| 20260831041012 | 76 | 5 | 0.0 | 0.9 | 0.00 | 0.00 | 0.00 | 85 | 1019.9 |
| 20260831040515 | 76 | 355 | 0.0 | 1.7 | 0.00 | 0.00 | 0.00 | 85 | 1019.9 |
| 20260831040027 | 76 | 355 | 0.0 | 1.7 | 0.00 | 0.00 | 0.00 | 85 | 1019.9 |
| 20260831035511 | 76 | 132 | 0.0 | 1.7 | 0.00 | 0.00 | 0.00 | 86 | 1019.9 |
| 20260831035017 | 76 | 132 | 0.0 | 1.7 | 0.00 | 0.00 | 0.00 | 86 | 1019.8 |
| 20260831034508 | 76 | 158 | 0.0 | 1.7 | 0.00 | 0.00 | 0.00 | 87 | 1019.8 |
| 20260831034010 | 76 | 160 | 0.0 | 0.0 | 0.00 | 0.00 | 0.00 | 88 | 1020.0 |
| 20260831033514 | 76 | 160 | 0.0 | 0.0 | 0.00 | 0.00 | 0.00 | 88 | 1020.0 |
| 20260831033012 | 76 | 160 | 0.0 | 0.0 | 0.00 | 0.00 | 0.00 | 88 | 1020.0 |
| 20260831032514 | 76 | 160 | 0.0 | 0.0 | 0.00 | 0.00 | 0.00 | 87 | 1020.1 |
| 20260831032016 | 76 | 160 | 0.0 | 0.0 | 0.00 | 0.00 | 0.00 | 87 | 1020.1 |
| 20260831031513 | 76 | 160 | 0.0 | 0.0 | 0.00 | 0.00 | 0.00 | 87 | 1020.1 |
| 20260831031014 | 76 | 160 | 0.0 | 0.0 | 0.00 | 0.00 | 0.00 | 86 | 1020.1 |
| 20260831030515 | 77 | 160 | 0.0 | 0.0 | 0.00 | 0.00 | 0.00 | 85 | 1020.1 |
| 20260831030024 | 77 | 160 | 0.0 | 0.0 | 0.00 | 0.00 | 0.00 | 85 | 1020.1 |
| 20260831025515 | 77 | 160 | 0.0 | 0.0 | 0.00 | 0.00 | 0.00 | 84 | 1020.1 |
| 20260831025016 | 77 | 160 | 0.0 | 0.0 | 0.00 | 0.00 | 0.00 | 83 | 1020.1 |
| 20260831024511 | 77 | 160 | 0.0 | 0.0 | 0.00 | 0.00 | 0.00 | 83 | 1020.1 |
| 20260831024012 | 77 | 160 | 0.0 | 0.0 | 0.00 | 0.00 | 0.00 | 83 | 1020.1 |
| 20260831023522 | 77 | 160 | 0.0 | 0.9 | 0.00 | 0.00 | 0.00 | 83 | 1020.1 |
| 20260831023012 | 77 | 160 | 0.0 | 0.9 | 0.00 | 0.00 | 0.00 | 83 | 1020.1 |
| 20260831022519 | 77 | 160 | 0.0 | 1.7 | 0.00 | 0.00 | 0.00 | 83 | 1020.1 |
| 20260831022016 | 77 | 191 | 0.0 | 1.7 | 0.00 | 0.00 | 0.00 | 84 | 1020.2 |
| 20260831021516 | 77 | 171 | 0.0 | 1.7 | 0.00 | 0.00 | 0.00 | 85 | 1020.2 |
| 20260831021013 | 76 | 141 | 0.0 | 0.9 | 0.00 | 0.00 | 0.00 | 86 | 1020.1 |
| 20260831020516 | 76 | 144 | 0.0 | 0.9 | 0.00 | 0.00 | 0.00 | 87 | 1020.2 |
| 20260831020015 | 76 | 152 | 0.0 | 0.0 | 0.00 | 0.00 | 0.00 | 87 | 1020.2 |
| 20260831015513 | 76 | 152 | 0.0 | 0.0 | 0.00 | 0.00 | 0.00 | 87 | 1020.2 |
| 20260831015017 | 76 | 152 | 0.0 | 0.0 | 0.00 | 0.00 | 0.00 | 86 | 1020.2 |
| 20260831014517 | 76 | 152 | 0.0 | 0.0 | 0.00 | 0.00 | 0.00 | 86 | 1020.2 |
| 20260831014016 | 76 | 152 | 0.0 | 0.0 | 0.00 | 0.00 | 0.00 | 85 | 1020.2 |
| 20260831013517 | 76 | 152 | 0.0 | 0.0 | 0.00 | 0.00 | 0.00 | 85 | 1020.1 |
| 20260831013016 | 76 | 152 | 0.0 | 0.0 | 0.00 | 0.00 | 0.00 | 86 | 1020.1 |
| 20260831012518 | 76 | 152 | 0.0 | 0.0 | 0.00 | 0.00 | 0.00 | 85 | 1020.1 |
| 20260831012018 | 76 | 152 | 0.0 | 0.0 | 0.00 | 0.00 | 0.00 | 85 | 1020.2 |
| 20260831011529 | 76 | 152 | 0.0 | 0.0 | 0.00 | 0.00 | 0.00 | 85 | 1020.2 |
| 20260831011018 | 76 | 152 | 0.0 | 0.0 | 0.00 | 0.00 | 0.00 | 85 | 1020.1 |
| 20260831010519 | 76 | 152 | 0.0 | 0.0 | 0.00 | 0.00 | 0.00 | 85 | 1020.1 |
| 20260831010020 | 76 | 152 | 0.0 | 0.0 | 0.00 | 0.00 | 0.00 | 85 | 1020.0 |
| 20260831005514 | 77 | 152 | 0.0 | 0.0 | 0.00 | 0.00 | 0.00 | 84 | 1020.0 |
| 20260831005018 | 77 | 152 | 0.0 | 0.0 | 0.00 | 0.00 | 0.00 | 84 | 1019.9 |
| 20260831004534 | 77 | 152 | 0.0 | 0.0 | 0.00 | 0.00 | 0.00 | 83 | 1019.8 |
| 20260831004002 | 77 | 152 | 0.0 | 0.0 | 0.00 | 0.00 | 0.00 | 83 | 1019.6 |
| 20260831003510 | 77 | 152 | 0.0 | 0.0 | 0.00 | 0.00 | 0.00 | 82 | 1019.6 |
| 20260831003006 | 78 | 152 | 0.0 | 0.9 | 0.00 | 0.00 | 0.00 | 82 | 1019.6 |
| 20260831002502 | 78 | 152 | 0.0 | 0.9 | 0.00 | 0.00 | 0.00 | 82 | 1019.4 |
| 20260831002007 | 78 | 152 | 0.0 | 0.0 | 0.00 | 0.00 | 0.00 | 81 | 1019.4 |
| 20260831001508 | 79 | 152 | 0.0 | 0.0 | 0.00 | 0.00 | 0.00 | 81 | 1019.4 |
| 20260831001005 | 79 | 152 | 0.0 | 0.0 | 0.00 | 0.00 | 0.00 | 81 | 1019.3 |
| 20260831000511 | 79 | 152 | 0.0 | 0.0 | 0.00 | 0.00 | 0.00 | 80 | 1019.2 |
| 20260831000006 | 80 | 152 | 0.0 | 0.0 | 0.00 | 0.00 | 0.00 | 80 | 1019.3 |
| 20260830235504 | 80 | 152 | 0.0 | 0.0 | 0.00 | 0.00 | 0.00 | 79 | 1019.4 |
| 20260830235013 | 81 | 152 | 0.0 | 0.0 | 0.00 | 0.00 | 0.00 | 78 | 1019.3 |
| 20260830234505 | 81 | 152 | 0.0 | 0.0 | 0.00 | 0.00 | 0.00 | 77 | 1019.3 |
| 20260830234004 | 82 | 152 | 0.0 | 0.0 | 0.00 | 0.00 | 0.00 | 77 | 1019.3 |
| 20260830233513 | 82 | 152 | 0.0 | 0.0 | 0.00 | 0.00 | 0.00 | 76 | 1019.4 |
| 20260830233007 | 83 | 152 | 0.0 | 0.0 | 0.00 | 0.00 | 0.00 | 74 | 1019.4 |
| 20260830232506 | 83 | 152 | 0.0 | 0.0 | 0.00 | 0.00 | 0.00 | 73 | 1019.4 |
| 20260830232010 | 84 | 152 | 0.0 | 0.9 | 0.00 | 0.00 | 0.00 | 72 | 1019.4 |
| 20260830231503 | 84 | 152 | 0.0 | 1.7 | 0.00 | 0.00 | 0.00 | 70 | 1019.5 |
| 20260830231008 | 85 | 152 | 0.0 | 1.7 | 0.00 | 0.00 | 0.00 | 69 | 1019.5 |
| 20260830230512 | 85 | 152 | 0.0 | 1.7 | 0.00 | 0.00 | 0.00 | 67 | 1019.5 |
| 20260830230004 | 85 | 121 | 0.0 | 1.7 | 0.00 | 0.00 | 0.00 | 67 | 1019.5 |
| 20260830225508 | 85 | 111 | 0.0 | 1.7 | 0.00 | 0.00 | 0.00 | 67 | 1019.4 |
| 20260830225017 | 85 | 165 | 0.0 | 1.7 | 0.00 | 0.00 | 0.00 | 67 | 1019.4 |
| 20260830224504 | 86 | 115 | 0.0 | 1.7 | 0.00 | 0.00 | 0.00 | 67 | 1019.4 |
| 20260830224008 | 86 | 140 | 0.0 | 1.7 | 0.00 | 0.00 | 0.00 | 66 | 1019.3 |
| 20260830223511 | 86 | 126 | 0.0 | 3.5 | 0.00 | 0.00 | 0.00 | 65 | 1019.4 |
| 20260830223007 | 86 | 148 | 0.0 | 3.5 | 0.00 | 0.00 | 0.00 | 65 | 1019.3 |
| 20260830222508 | 86 | 175 | 0.9 | 2.6 | 0.00 | 0.00 | 0.00 | 65 | 1019.4 |
| 20260830222011 | 86 | 111 | 0.9 | 3.5 | 0.00 | 0.00 | 0.00 | 64 | 1019.3 |
| 20260830221503 | 86 | 175 | 0.9 | 3.5 | 0.00 | 0.00 | 0.00 | 63 | 1019.4 |
| 20260830221006 | 87 | 110 | 0.9 | 1.7 | 0.00 | 0.00 | 0.00 | 65 | 1019.3 |
| 20260830220512 | 87 | 350 | 0.0 | 2.6 | 0.00 | 0.00 | 0.00 | 64 | 1019.4 |
| 20260830220014 | 87 | 90 | 0.0 | 6.1 | 0.00 | 0.00 | 0.00 | 63 | 1019.4 |
| 20260830215508 | 87 | 178 | 0.9 | 6.1 | 0.00 | 0.00 | 0.00 | 63 | 1019.4 |
| 20260830215016 | 87 | 82 | 1.7 | 5.2 | 0.00 | 0.00 | 0.00 | 63 | 1019.4 |
| 20260830214508 | 87 | 51 | 0.0 | 3.5 | 0.00 | 0.00 | 0.00 | 62 | 1019.3 |
| 20260830214010 | 87 | 124 | 0.9 | 3.5 | 0.00 | 0.00 | 0.00 | 62 | 1019.4 |
| 20260830213513 | 87 | 103 | 0.0 | 3.5 | 0.00 | 0.00 | 0.00 | 63 | 1019.3 |
| 20260830213006 | 87 | 132 | 0.9 | 2.6 | 0.00 | 0.00 | 0.00 | 62 | 1019.3 |
| 20260830212508 | 87 | 32 | 0.0 | 4.3 | 0.00 | 0.00 | 0.00 | 63 | 1019.2 |
| 20260830212016 | 87 | 205 | 0.0 | 4.3 | 0.00 | 0.00 | 0.00 | 62 | 1019.2 |
| 20260830211509 | 87 | 63 | 0.0 | 4.3 | 0.00 | 0.00 | 0.00 | 62 | 1019.1 |
| 20260830211012 | 87 | 198 | 0.0 | 6.1 | 0.00 | 0.00 | 0.00 | 62 | 1019.1 |
| 20260830210516 | 88 | 139 | 1.7 | 6.1 | 0.00 | 0.00 | 0.00 | 61 | 1019.1 |
| 20260830210019 | 88 | 176 | 0.9 | 3.5 | 0.00 | 0.00 | 0.00 | 62 | 1019.3 |
| 20260830205513 | 88 | 355 | 0.0 | 7.0 | 0.00 | 0.00 | 0.00 | 60 | 1019.2 |
| 20260830205013 | 88 | 227 | 0.0 | 7.0 | 0.00 | 0.00 | 0.00 | 63 | 1019.3 |
| 20260830204508 | 88 | 110 | 1.7 | 7.0 | 0.00 | 0.00 | 0.00 | 61 | 1019.3 |
| 20260830204013 | 88 | 154 | 0.9 | 5.2 | 0.00 | 0.00 | 0.00 | 61 | 1019.3 |
| 20260830203514 | 88 | 206 | 1.7 | 4.3 | 0.00 | 0.00 | 0.00 | 61 | 1019.4 |
| 20260830203008 | 88 | 117 | 0.9 | 4.3 | 0.00 | 0.00 | 0.00 | 61 | 1019.4 |
| 20260830202512 | 89 | 153 | 0.9 | 4.3 | 0.00 | 0.00 | 0.00 | 61 | 1019.6 |
| 20260830202017 | 89 | 101 | 0.9 | 2.6 | 0.00 | 0.00 | 0.00 | 60 | 1019.6 |
| 20260830201512 | 89 | 165 | 0.0 | 2.6 | 0.00 | 0.00 | 0.00 | 62 | 1019.7 |
| 20260830201011 | 89 | 173 | 0.9 | 2.6 | 0.00 | 0.00 | 0.00 | 61 | 1019.7 |
| 20260830200516 | 89 | 123 | 0.9 | 2.6 | 0.00 | 0.00 | 0.00 | 63 | 1019.7 |
| 20260830200010 | 88 | 144 | 0.0 | 2.6 | 0.00 | 0.00 | 0.00 | 65 | 1019.7 |
| 20260830195511 | 88 | 60 | 0.9 | 2.6 | 0.00 | 0.00 | 0.00 | 63 | 1019.9 |
| 20260830195017 | 88 | 24 | 0.0 | 3.5 | 0.00 | 0.00 | 0.00 | 62 | 1020.0 |
| 20260830194513 | 88 | 28 | 0.9 | 3.5 | 0.00 | 0.00 | 0.00 | 61 | 1020.0 |
| 20260830194015 | 88 | 337 | 1.7 | 3.5 | 0.00 | 0.00 | 0.00 | 61 | 1020.1 |
| 20260830193513 | 89 | 86 | 1.7 | 3.5 | 0.00 | 0.00 | 0.00 | 63 | 1020.2 |
| 20260830193013 | 88 | 18 | 0.9 | 4.3 | 0.00 | 0.00 | 0.00 | 62 | 1020.3 |
| 20260830192513 | 88 | 28 | 0.9 | 4.3 | 0.00 | 0.00 | 0.00 | 63 | 1020.6 |
| 20260830192004 | 88 | 355 | 0.9 | 3.5 | 0.00 | 0.00 | 0.00 | 64 | 1020.6 |
| 20260830191553 | 88 | 352 | 1.7 | 3.5 | 0.00 | 0.00 | 0.00 | 63 | 1020.6 |
| 20260830191013 | 87 | 355 | 1.7 | 3.5 | 0.00 | 0.00 | 0.00 | 65 | 1020.7 |
| 20260830190503 | 87 | 5 | 0.0 | 2.6 | 0.00 | 0.00 | 0.00 | 65 | 1020.8 |
| 20260830190019 | 88 | 175 | 0.9 | 3.5 | 0.00 | 0.00 | 0.00 | 63 | 1020.9 |
| 20260830185516 | 87 | 199 | 0.9 | 5.2 | 0.00 | 0.00 | 0.00 | 66 | 1021.0 |
| 20260830185013 | 88 | 303 | 1.7 | 5.2 | 0.00 | 0.00 | 0.00 | 63 | 1020.9 |
| 20260830184524 | 88 | 325 | 0.9 | 5.2 | 0.00 | 0.00 | 0.00 | 65 | 1021.0 |
| 20260830184017 | 88 | 5 | 0.0 | 3.5 | 0.00 | 0.00 | 0.00 | 67 | 1021.1 |
| 20260830183506 | 87 | 126 | 0.9 | 2.6 | 0.00 | 0.00 | 0.00 | 65 | 1021.2 |
| 20260830183020 | 88 | 122 | 0.0 | 6.1 | 0.00 | 0.00 | 0.00 | 69 | 1021.3 |
| 20260830182519 | 88 | 17 | 0.9 | 6.1 | 0.00 | 0.00 | 0.00 | 66 | 1021.4 |
| 20260830182010 | 87 | 338 | 0.9 | 5.2 | 0.00 | 0.00 | 0.00 | 65 | 1021.5 |
| 20260830181520 | 87 | 350 | 0.9 | 5.2 | 0.00 | 0.00 | 0.00 | 66 | 1021.5 |
| 20260830181014 | 87 | 146 | 1.7 | 5.2 | 0.00 | 0.00 | 0.00 | 65 | 1021.6 |
| 20260830180505 | 87 | 324 | 0.0 | 3.5 | 0.00 | 0.00 | 0.00 | 64 | 1021.8 |
| 20260830180033 | 86 | 61 | 0.9 | 2.6 | 0.00 | 0.00 | 0.00 | 69 | 1021.8 |
| 20260830175518 | 86 | 27 | 0.0 | 4.3 | 0.00 | 0.00 | 0.00 | 67 | 1021.9 |
| 20260830175010 | 87 | 121 | 0.9 | 4.3 | 0.00 | 0.00 | 0.00 | 66 | 1022.0 |
| 20260830174530 | 86 | 141 | 0.9 | 3.5 | 0.00 | 0.00 | 0.00 | 69 | 1022.0 |
| 20260830174018 | 86 | 10 | 0.9 | 3.5 | 0.00 | 0.00 | 0.00 | 67 | 1022.1 |
| 20260830173509 | 85 | 339 | 0.9 | 3.5 | 0.00 | 0.00 | 0.00 | 68 | 1022.1 |
| 20260830173026 | 86 | 116 | 0.0 | 4.3 | 0.00 | 0.00 | 0.00 | 67 | 1022.2 |
| 20260830172519 | 85 | 142 | 1.7 | 4.3 | 0.00 | 0.00 | 0.00 | 75 | 1022.2 |
| 20260830172008 | 83 | 342 | 1.7 | 4.3 | 0.00 | 0.00 | 0.00 | 72 | 1022.3 |
| 20260830171523 | 84 | 106 | 0.9 | 3.5 | 0.00 | 0.00 | 0.00 | 70 | 1022.3 |
| 20260830171015 | 84 | 352 | 0.9 | 5.2 | 0.00 | 0.00 | 0.00 | 71 | 1022.4 |
| 20260830170512 | 84 | 321 | 2.6 | 5.2 | 0.00 | 0.00 | 0.00 | 71 | 1022.3 |
| 20260830170025 | 84 | 39 | 2.6 | 5.2 | 0.00 | 0.00 | 0.00 | 71 | 1022.4 |
| 20260830165519 | 85 | 147 | 0.0 | 3.5 | 0.00 | 0.00 | 0.00 | 70 | 1022.5 |
| 20260830165019 | 85 | 95 | 0.9 | 3.5 | 0.00 | 0.00 | 0.00 | 70 | 1022.5 |
| 20260830164527 | 85 | 153 | 0.9 | 5.2 | 0.00 | 0.00 | 0.00 | 68 | 1022.5 |
| 20260830164017 | 84 | 98 | 1.7 | 5.2 | 0.00 | 0.00 | 0.00 | 71 | 1022.5 |
| 20260830163512 | 84 | 153 | 0.9 | 4.3 | 0.00 | 0.00 | 0.00 | 71 | 1022.6 |
| 20260830163037 | 83 | 355 | 1.7 | 5.2 | 0.00 | 0.00 | 0.00 | 72 | 1022.6 |
| 20260830162515 | 84 | 121 | 0.0 | 5.2 | 0.00 | 0.00 | 0.00 | 70 | 1022.7 |
| 20260830162011 | 83 | 172 | 1.7 | 4.3 | 0.00 | 0.00 | 0.00 | 71 | 1022.7 |
| 20260830161527 | 82 | 188 | 1.7 | 3.5 | 0.00 | 0.00 | 0.00 | 75 | 1022.7 |
| 20260830161024 | 82 | 360 | 0.0 | 3.5 | 0.00 | 0.00 | 0.00 | 76 | 1022.7 |
| 20260830160511 | 81 | 127 | 0.9 | 3.5 | 0.00 | 0.00 | 0.00 | 77 | 1022.8 |
| 20260830160038 | 81 | 40 | 0.0 | 4.3 | 0.00 | 0.00 | 0.00 | 77 | 1022.9 |
| 20260830155521 | 81 | 84 | 0.0 | 5.2 | 0.00 | 0.00 | 0.00 | 75 | 1023.0 |
| 20260830155015 | 82 | 351 | 1.7 | 5.2 | 0.00 | 0.00 | 0.00 | 75 | 1023.0 |
| 20260830154529 | 83 | 326 | 0.0 | 2.6 | 0.00 | 0.00 | 0.00 | 71 | 1023.0 |
| 20260830154004 | 81 | 101 | 0.9 | 3.5 | 0.00 | 0.00 | 0.00 | 74 | 1023.1 |
| 20260830153504 | 81 | 111 | 1.7 | 5.2 | 0.00 | 0.00 | 0.00 | 75 | 1023.1 |
| 20260830153004 | 81 | 168 | 2.6 | 5.2 | 0.00 | 0.00 | 0.00 | 74 | 1023.1 |
| 20260830152507 | 81 | 109 | 0.0 | 4.3 | 0.00 | 0.00 | 0.00 | 75 | 1023.1 |
| 20260830152003 | 81 | 105 | 0.0 | 5.2 | 0.00 | 0.00 | 0.00 | 77 | 1023.1 |
| 20260830151503 | 81 | 120 | 1.7 | 5.2 | 0.00 | 0.00 | 0.00 | 75 | 1023.2 |
| 20260830151003 | 82 | 349 | 0.9 | 5.2 | 0.00 | 0.00 | 0.00 | 78 | 1023.1 |
| 20260830150503 | 82 | 143 | 0.0 | 5.2 | 0.00 | 0.00 | 0.00 | 78 | 1023.0 |
| 20260830150016 | 82 | 176 | 0.9 | 3.5 | 0.00 | 0.00 | 0.00 | 75 | 1023.0 |
| 20260830145504 | 80 | 117 | 1.7 | 4.3 | 0.00 | 0.00 | 0.00 | 77 | 1023.1 |
| 20260830145003 | 80 | 159 | 1.7 | 4.3 | 0.00 | 0.00 | 0.00 | 78 | 1023.1 |
| 20260830144513 | 80 | 159 | 1.7 | 5.2 | 0.00 | 0.00 | 0.00 | 79 | 1023.2 |
| 20260830144003 | 80 | 100 | 1.7 | 5.2 | 0.00 | 0.00 | 0.00 | 78 | 1023.2 |
| 20260830143503 | 81 | 138 | 2.6 | 5.2 | 0.00 | 0.00 | 0.00 | 79 | 1023.1 |
| 20260830143005 | 81 | 112 | 0.9 | 2.6 | 0.00 | 0.00 | 0.00 | 82 | 1023.2 |
| 20260830142504 | 80 | 106 | 0.0 | 4.3 | 0.00 | 0.00 | 0.00 | 81 | 1023.1 |
| 20260830142004 | 80 | 136 | 1.7 | 4.3 | 0.00 | 0.00 | 0.00 | 80 | 1023.1 |
| 20260830141503 | 81 | 161 | 0.9 | 4.3 | 0.00 | 0.00 | 0.00 | 81 | 1023.2 |
| 20260830141003 | 79 | 155 | 0.9 | 4.3 | 0.00 | 0.00 | 0.00 | 85 | 1023.1 |
| 20260830140502 | 78 | 101 | 0.0 | 5.2 | 0.00 | 0.00 | 0.00 | 85 | 1023.2 |
| 20260830140003 | 78 | 119 | 1.7 | 5.2 | 0.00 | 0.00 | 0.00 | 87 | 1023.4 |
| 20260830135505 | 77 | 167 | 1.7 | 4.3 | 0.00 | 0.00 | 0.00 | 87 | 1023.5 |
| 20260830135003 | 77 | 162 | 0.9 | 4.3 | 0.00 | 0.00 | 0.00 | 87 | 1023.5 |
| 20260830134505 | 77 | 146 | 0.9 | 2.6 | 0.00 | 0.00 | 0.00 | 90 | 1023.6 |
| 20260830134003 | 76 | 146 | 0.0 | 2.6 | 0.00 | 0.00 | 0.00 | 92 | 1023.7 |
| 20260830133504 | 75 | 126 | 0.0 | 3.5 | 0.00 | 0.00 | 0.00 | 94 | 1023.8 |
| 20260830133006 | 75 | 171 | 0.0 | 3.5 | 0.00 | 0.00 | 0.00 | 95 | 1023.8 |
| 20260830132505 | 74 | 137 | 0.0 | 1.7 | 0.00 | 0.00 | 0.00 | 95 | 1023.9 |
| 20260830132004 | 74 | 212 | 0.0 | 2.6 | 0.00 | 0.00 | 0.00 | 96 | 1023.8 |
| 20260830131506 | 74 | 205 | 0.0 | 2.6 | 0.00 | 0.00 | 0.00 | 96 | 1023.9 |
| 20260830131004 | 73 | 188 | 0.0 | 0.9 | 0.00 | 0.00 | 0.00 | 97 | 1023.9 |
| 20260830130504 | 73 | 188 | 0.0 | 0.9 | 0.00 | 0.00 | 0.00 | 96 | 1023.9 |
| 20260830130006 | 73 | 133 | 0.0 | 0.9 | 0.00 | 0.00 | 0.00 | 97 | 1024.0 |
| 20260830125506 | 73 | 134 | 0.0 | 1.7 | 0.00 | 0.00 | 0.00 | 97 | 1024.0 |
| 20260830125003 | 73 | 134 | 0.0 | 1.7 | 0.00 | 0.00 | 0.00 | 97 | 1024.1 |
| 20260830124507 | 72 | 128 | 0.0 | 0.9 | 0.00 | 0.00 | 0.00 | 96 | 1024.1 |
| 20260830124006 | 72 | 144 | 0.0 | 0.0 | 0.00 | 0.00 | 0.00 | 96 | 1024.2 |